TimeCDT,TemperatureF,Dew PointF,Humidity,Sea Level PressureIn,VisibilityMPH,Wind Direction,Wind SpeedMPH,Gust SpeedMPH,PrecipitationIn,Events,Conditions,WindDirDegrees,DateUTC
12:12 AM,28.4,28.4,100,29.65,-9999.0,NW,13.8,-,N/A,,Overcast,310,2013-04-19 05:12:00
12:33 AM,28.4,28.4,100,29.65,-9999.0,NW,16.1,-,N/A,,Overcast,310,2013-04-19 05:33:00
12:52 AM,28.4,28.4,100,29.64,-9999.0,NW,17.3,-,N/A,,Overcast,310,2013-04-19 05:52:00
1:12 AM,28.4,26.6,93,29.64,-9999.0,NW,13.8,-,N/A,,Overcast,310,2013-04-19 06:12:00
1:33 AM,28.4,26.6,93,29.64,-9999.0,NW,16.1,20.7,N/A,,Unknown,310,2013-04-19 06:33:00
1:52 AM,26.6,26.6,100,29.63,2.5,NW,13.8,-,N/A,Snow,Light Snow,310,2013-04-19 06:52:00
2:12 AM,26.6,24.8,93,29.63,3.0,NW,13.8,-,N/A,,Overcast,310,2013-04-19 07:12:00
2:33 AM,26.6,24.8,93,29.63,3.0,NW,15.0,-,N/A,Snow,Light Snow,310,2013-04-19 07:33:00
2:52 AM,26.6,24.8,93,29.63,3.0,NW,12.7,-,N/A,Snow,Light Snow,310,2013-04-19 07:52:00
3:12 AM,26.6,24.8,93,29.63,3.0,NW,15.0,-,N/A,Snow,Light Snow,310,2013-04-19 08:12:00
3:33 AM,26.6,24.8,93,29.63,4.0,NW,15.0,20.7,N/A,Snow,Light Snow,310,2013-04-19 08:33:00
3:52 AM,26.6,23.0,86,29.64,5.0,NW,12.7,-,N/A,,Overcast,310,2013-04-19 08:52:00
4:12 AM,26.6,23.0,86,29.64,5.0,NW,13.8,-,N/A,,Overcast,310,2013-04-19 09:12:00
4:33 AM,26.6,23.0,86,29.65,7.0,NW,16.1,-,N/A,,Overcast,310,2013-04-19 09:33:00
4:52 AM,24.8,21.2,86,29.65,7.0,NW,16.1,-,N/A,,Overcast,310,2013-04-19 09:52:00
5:12 AM,24.8,21.2,86,29.65,5.0,NW,19.6,-,N/A,,Mostly Cloudy,310,2013-04-19 10:12:00
5:33 AM,24.8,21.2,86,29.65,7.0,NW,16.1,-,N/A,,Clear,310,2013-04-19 10:33:00
5:52 AM,24.8,21.2,86,29.65,7.0,NW,18.4,23.0,N/A,,Clear,310,2013-04-19 10:52:00
6:12 AM,24.8,21.2,86,29.66,10.0,NW,16.1,-,N/A,,Clear,310,2013-04-19 11:12:00
6:32 AM,24.8,21.2,86,29.67,10.0,WNW,16.1,23.0,N/A,,Clear,300,2013-04-19 11:32:00
6:52 AM,24.8,21.2,86,29.68,7.0,NW,17.3,23.0,N/A,,Clear,310,2013-04-19 11:52:00
7:13 AM,24.8,21.2,86,29.68,7.0,WNW,17.3,-,N/A,,Clear,300,2013-04-19 12:13:00
7:32 AM,24.8,21.2,86,29.69,10.0,NW,17.3,24.2,N/A,,Scattered Clouds,310,2013-04-19 12:32:00
7:52 AM,24.8,21.2,86,29.70,10.0,NW,17.3,-,N/A,,Scattered Clouds,310,2013-04-19 12:52:00
8:13 AM,26.6,21.2,80,29.70,10.0,WNW,18.4,25.3,N/A,,Clear,300,2013-04-19 13:13:00
8:32 AM,26.6,21.2,80,29.71,7.0,WNW,19.6,-,N/A,,Clear,300,2013-04-19 13:32:00
8:52 AM,26.6,21.2,80,29.71,7.0,NW,21.9,29.9,N/A,,Clear,310,2013-04-19 13:52:00
9:13 AM,26.6,23.0,86,29.71,7.0,NW,20.7,26.5,N/A,,Clear,310,2013-04-19 14:13:00
9:32 AM,28.4,23.0,80,29.72,7.0,NW,21.9,27.6,N/A,,Clear,310,2013-04-19 14:32:00
9:52 AM,28.4,23.0,80,29.72,5.0,NW,20.7,27.6,N/A,,Haze,310,2013-04-19 14:52:00
10:32 AM,28.4,24.8,86,29.74,7.0,NW,23.0,27.6,N/A,,Clear,310,2013-04-19 15:32:00
10:52 AM,28.4,24.8,86,29.75,7.0,NW,21.9,-,N/A,,Clear,310,2013-04-19 15:52:00
11:13 AM,30.2,24.8,80,29.76,10.0,NW,21.9,31.1,N/A,,Clear,310,2013-04-19 16:13:00
11:32 AM,30.2,24.8,80,29.77,10.0,NW,24.2,28.8,N/A,,Clear,310,2013-04-19 16:32:00
11:52 AM,30.2,24.8,80,29.77,10.0,NW,24.2,31.1,N/A,,Clear,310,2013-04-19 16:52:00
12:13 PM,30.2,24.8,80,29.78,10.0,WNW,23.0,28.8,N/A,,Clear,300,2013-04-19 17:13:00
12:32 PM,30.2,24.8,80,29.79,10.0,WNW,20.7,28.8,N/A,,Clear,300,2013-04-19 17:32:00
12:52 PM,30.2,24.8,80,29.80,10.0,NW,25.3,29.9,N/A,,Clear,310,2013-04-19 17:52:00
1:13 PM,30.2,24.8,80,29.81,10.0,NW,23.0,28.8,N/A,,Clear,310,2013-04-19 18:13:00
1:33 PM,30.2,24.8,80,29.82,10.0,NW,20.7,28.8,N/A,,Clear,310,2013-04-19 18:33:00
1:52 PM,30.2,24.8,80,29.82,10.0,NW,25.3,-,N/A,,Scattered Clouds,310,2013-04-19 18:52:00
2:13 PM,30.2,24.8,80,29.83,10.0,NW,25.3,28.8,N/A,,Clear,310,2013-04-19 19:13:00
2:33 PM,32.0,24.8,75,29.84,10.0,NW,26.5,32.2,N/A,,Mostly Cloudy,310,2013-04-19 19:33:00
2:52 PM,30.2,24.8,80,29.84,10.0,WNW,26.5,32.2,N/A,,Mostly Cloudy,300,2013-04-19 19:52:00
3:13 PM,30.2,24.8,80,29.85,10.0,NW,26.5,-,N/A,,Mostly Cloudy,310,2013-04-19 20:13:00
3:33 PM,32.0,24.8,75,29.85,10.0,WNW,23.0,-,N/A,,Overcast,300,2013-04-19 20:33:00
3:52 PM,30.2,24.8,80,29.86,10.0,NW,28.8,34.5,N/A,,Overcast,310,2013-04-19 20:52:00
4:13 PM,30.2,24.8,80,29.87,10.0,NW,27.6,35.7,N/A,,Mostly Cloudy,310,2013-04-19 21:13:00
4:33 PM,32.0,24.8,75,29.88,10.0,NW,24.2,32.2,N/A,,Mostly Cloudy,310,2013-04-19 21:33:00
4:52 PM,30.2,24.8,80,29.89,10.0,NW,23.0,32.2,N/A,,Scattered Clouds,310,2013-04-19 21:52:00
5:13 PM,30.2,24.8,80,29.90,10.0,NW,26.5,31.1,N/A,,Mostly Cloudy,320,2013-04-19 22:13:00
5:33 PM,30.2,24.8,80,29.91,10.0,NW,23.0,31.1,N/A,,Mostly Cloudy,310,2013-04-19 22:33:00
5:52 PM,30.2,24.8,80,29.92,10.0,NW,24.2,32.2,N/A,,Mostly Cloudy,310,2013-04-19 22:52:00
6:13 PM,30.2,24.8,80,29.93,10.0,NW,21.9,26.5,N/A,,Overcast,310,2013-04-19 23:13:00
6:33 PM,30.2,24.8,80,29.94,10.0,NW,19.6,26.5,N/A,,Overcast,320,2013-04-19 23:33:00
6:52 PM,30.2,24.8,80,29.94,10.0,NW,24.2,27.6,N/A,,Overcast,320,2013-04-19 23:52:00
7:13 PM,30.2,24.8,80,29.95,10.0,NW,20.7,25.3,N/A,,Overcast,310,2013-04-20 00:13:00
7:33 PM,30.2,24.8,80,29.96,10.0,WNW,17.3,23.0,N/A,,Overcast,300,2013-04-20 00:33:00
7:52 PM,28.4,24.8,86,29.96,10.0,NW,18.4,23.0,N/A,,Mostly Cloudy,310,2013-04-20 00:52:00
8:12 PM,28.4,24.8,86,29.97,10.0,WNW,16.1,-,N/A,,Scattered Clouds,300,2013-04-20 01:12:00
8:33 PM,28.4,23.0,80,29.98,10.0,WNW,15.0,-,N/A,,Clear,300,2013-04-20 01:33:00
8:52 PM,28.4,23.0,80,29.99,10.0,WNW,15.0,-,N/A,,Clear,300,2013-04-20 01:52:00
9:12 PM,28.4,23.0,80,30.00,10.0,NW,13.8,-,N/A,,Clear,310,2013-04-20 02:12:00
9:32 PM,26.6,21.2,80,30.01,10.0,NW,12.7,-,N/A,,Clear,310,2013-04-20 02:32:00
9:52 PM,26.6,21.2,80,30.02,10.0,WNW,11.5,-,N/A,,Clear,300,2013-04-20 02:52:00
10:12 PM,26.6,21.2,80,30.02,10.0,WNW,13.8,-,N/A,,Clear,300,2013-04-20 03:12:00
10:32 PM,26.6,21.2,80,30.03,10.0,WNW,11.5,-,N/A,,Clear,300,2013-04-20 03:32:00
10:53 PM,24.8,19.4,80,30.03,10.0,NW,10.4,-,N/A,,Clear,310,2013-04-20 03:53:00
11:12 PM,24.8,19.4,80,30.03,10.0,WNW,11.5,-,N/A,,Clear,300,2013-04-20 04:12:00
11:32 PM,24.8,19.4,80,30.03,10.0,WNW,11.5,-,N/A,,Clear,300,2013-04-20 04:32:00